Вернуться в каталог

STARLINK-6216

АктивенСвязьVLEO
NORAD 56893·PAYLOAD·🇺🇸 United States

Запущен Jun 12, 2023 с Cape Canaveral Space Force Station

Loading…

Ближайшие Пролёты (ближайшие 24 часа)

TLE

СвежийSource: CelesTrak SupGP

Эпоха: Sep 15, 2026, 01:46 UTC

1 56893C 23083T   26258.07409722  .00015287  00000+0  55315-3 0  2583
2 56893  43.0004  95.4608 0001373 268.1329 194.4176 15.27603709    14

Отслеживайте STARLINK-6216 в реальном времени с AllMySat

Download on the App Store